Time,TemperatureF,DewpointF,PressureIn,WindDirection,WindDirectionDegrees,WindSpeedMPH,WindSpeedGustMPH,Humidity,HourlyPrecipIn,Conditions,Clouds,dailyrainin,SoftwareType,DateUTC
2017-05-26 00:04:00,55.7,50.0,29.90,West,273,2.0,4.0,81,0.00,,---,0.00,VWS V14.01,2017-05-26 07:04:00,
2017-05-26 00:09:00,55.6,49.9,29.91,SW,230,3.0,4.0,81,0.00,,---,0.00,VWS V14.01,2017-05-26 07:09:00,
2017-05-26 00:14:00,55.6,49.9,29.91,SSW,213,0.0,4.0,81,0.00,,---,0.00,VWS V14.01,2017-05-26 07:14:00,
2017-05-26 00:19:00,55.7,50.0,29.91,WSW,242,3.0,6.0,81,0.00,,---,0.00,VWS V14.01,2017-05-26 07:19:00,
2017-05-26 00:24:00,55.7,50.0,29.91,SW,225,2.0,6.0,81,0.00,,---,0.00,VWS V14.01,2017-05-26 07:24:00,
2017-05-26 00:29:00,55.7,50.0,29.91,SW,230,2.0,6.0,81,0.00,,---,0.00,VWS V14.01,2017-05-26 07:29:00,
2017-05-26 00:34:00,55.7,50.0,29.91,WSW,240,0.0,3.0,81,0.00,,---,0.00,VWS V14.01,2017-05-26 07:34:00,
2017-05-26 00:39:00,55.7,50.0,29.90,WSW,244,0.0,3.0,81,0.00,,---,0.00,VWS V14.01,2017-05-26 07:39:00,
2017-05-26 00:44:00,55.7,50.0,29.90,WSW,241,2.0,3.0,81,0.00,,---,0.00,VWS V14.01,2017-05-26 07:44:00,
2017-05-26 00:49:00,55.6,49.9,29.90,WSW,241,0.0,2.0,81,0.00,,---,0.00,VWS V14.01,2017-05-26 07:49:00,
2017-05-26 00:54:00,55.6,49.9,29.90,WSW,240,0.0,3.0,81,0.00,,---,0.00,VWS V14.01,2017-05-26 07:54:00,
2017-05-26 00:59:00,55.6,49.9,29.90,WSW,240,0.0,3.0,81,0.00,,---,0.00,VWS V14.01,2017-05-26 07:59:00,
2017-05-26 01:04:00,55.7,50.0,29.90,WSW,241,0.0,2.0,81,0.00,,---,0.00,VWS V14.01,2017-05-26 08:04:00,
2017-05-26 01:09:00,55.7,50.0,29.90,WSW,237,3.0,3.0,81,0.00,,---,0.00,VWS V14.01,2017-05-26 08:09:00,
2017-05-26 01:14:00,55.7,49.6,29.90,SW,232,0.0,3.0,80,0.00,,---,0.00,VWS V14.01,2017-05-26 08:14:00,
2017-05-26 01:19:00,55.8,49.7,29.90,SW,232,0.0,0.0,80,0.00,,---,0.00,VWS V14.01,2017-05-26 08:19:00,
2017-05-26 01:24:00,55.8,49.7,29.90,WSW,251,1.0,2.0,80,0.00,,---,0.00,VWS V14.01,2017-05-26 08:24:00,
2017-05-26 01:29:00,55.7,49.6,29.90,SW,223,2.0,3.0,80,0.00,,---,0.00,VWS V14.01,2017-05-26 08:29:00,
2017-05-26 01:34:00,55.7,49.6,29.90,SW,222,1.0,3.0,80,0.00,,---,0.00,VWS V14.01,2017-05-26 08:34:00,
2017-05-26 01:39:00,55.8,49.7,29.91,SW,222,0.0,3.0,80,0.00,,---,0.00,VWS V14.01,2017-05-26 08:39:00,
2017-05-26 01:44:00,55.8,49.4,29.91,SW,222,0.0,3.0,79,0.00,,---,0.00,VWS V14.01,2017-05-26 08:44:00,
2017-05-26 01:49:00,55.8,49.4,29.90,SW,222,0.0,1.0,79,0.00,,---,0.00,VWS V14.01,2017-05-26 08:49:00,
2017-05-26 01:54:00,55.8,49.0,29.91,SSW,195,0.0,2.0,78,0.00,,---,0.00,VWS V14.01,2017-05-26 08:54:00,
2017-05-26 01:59:00,55.9,49.2,29.91,SSW,196,2.0,3.0,78,0.00,,---,0.00,VWS V14.01,2017-05-26 08:59:00,
2017-05-26 02:04:00,56.0,48.9,29.91,SSW,197,0.0,2.0,77,0.00,,---,0.00,VWS V14.01,2017-05-26 09:04:00,
2017-05-26 02:09:00,56.0,48.5,29.91,SSW,193,0.0,3.0,76,0.00,,---,0.00,VWS V14.01,2017-05-26 09:09:00,
2017-05-26 02:14:00,56.1,48.7,29.91,SSW,192,0.0,3.0,76,0.00,,---,0.00,VWS V14.01,2017-05-26 09:14:00,
2017-05-26 02:19:00,56.2,48.8,29.91,SSW,206,0.0,4.0,76,0.00,,---,0.00,VWS V14.01,2017-05-26 09:19:00,
2017-05-26 02:24:00,56.2,48.8,29.91,SW,234,0.0,4.0,76,0.00,,---,0.00,VWS V14.01,2017-05-26 09:24:00,
2017-05-26 02:29:00,56.3,48.8,29.91,SSW,199,0.0,4.0,76,0.00,,---,0.00,VWS V14.01,2017-05-26 09:29:00,
2017-05-26 02:34:00,56.3,48.8,29.91,SSW,199,0.0,1.0,76,0.00,,---,0.00,VWS V14.01,2017-05-26 09:34:00,
2017-05-26 02:39:00,56.3,48.8,29.91,South,183,1.0,2.0,76,0.00,,---,0.00,VWS V14.01,2017-05-26 09:39:00,
2017-05-26 02:44:00,56.3,48.5,29.91,SSW,199,1.0,4.0,75,0.00,,---,0.00,VWS V14.01,2017-05-26 09:44:00,
2017-05-26 02:49:00,56.3,48.5,29.91,SSE,164,1.0,3.0,75,0.00,,---,0.00,VWS V14.01,2017-05-26 09:49:00,
2017-05-26 02:54:00,56.4,48.2,29.91,SE,142,2.0,4.0,74,0.00,,---,0.00,VWS V14.01,2017-05-26 09:54:00,
2017-05-26 02:59:00,56.4,48.2,29.91,SSE,161,0.0,4.0,74,0.00,,---,0.00,VWS V14.01,2017-05-26 09:59:00,
2017-05-26 03:04:00,56.4,48.2,29.91,South,183,0.0,4.0,74,0.00,,---,0.00,VWS V14.01,2017-05-26 10:04:00,
2017-05-26 03:09:00,56.5,48.3,29.91,SE,146,2.0,4.0,74,0.00,,---,0.00,VWS V14.01,2017-05-26 10:09:00,
2017-05-26 03:14:00,56.5,48.3,29.91,SE,128,0.0,4.0,74,0.00,,---,0.00,VWS V14.01,2017-05-26 10:14:00,
2017-05-26 03:19:00,56.5,48.3,29.90,SE,133,0.0,2.0,74,0.00,,---,0.00,VWS V14.01,2017-05-26 10:19:00,
2017-05-26 03:24:00,56.5,48.3,29.91,SE,144,1.0,3.0,74,0.00,,---,0.00,VWS V14.01,2017-05-26 10:24:00,
2017-05-26 03:29:00,56.5,48.0,29.91,SSE,150,0.0,4.0,73,0.00,,---,0.00,VWS V14.01,2017-05-26 10:29:00,
2017-05-26 03:34:00,56.4,47.9,29.91,SSE,150,1.0,3.0,73,0.00,,---,0.00,VWS V14.01,2017-05-26 10:34:00,
2017-05-26 03:39:00,56.4,47.5,29.91,SSE,153,0.0,3.0,72,0.00,,---,0.00,VWS V14.01,2017-05-26 10:39:00,
2017-05-26 03:44:00,56.4,47.5,29.91,SSE,153,0.0,3.0,72,0.00,,---,0.00,VWS V14.01,2017-05-26 10:44:00,
2017-05-26 03:49:00,56.4,47.5,29.91,SE,133,2.0,3.0,72,0.00,,---,0.00,VWS V14.01,2017-05-26 10:49:00,
2017-05-26 03:54:00,56.4,47.5,29.91,SE,138,1.0,3.0,72,0.00,,---,0.00,VWS V14.01,2017-05-26 10:54:00,
2017-05-26 04:00:00,56.4,47.5,29.91,SE,138,3.0,3.0,72,0.00,,---,0.00,VWS V14.01,2017-05-26 11:00:00,
2017-05-26 04:05:00,56.4,47.5,29.91,SE,138,0.0,4.0,72,0.00,,---,0.00,VWS V14.01,2017-05-26 11:05:00,
2017-05-26 04:10:00,56.4,47.1,29.91,SSE,150,1.0,4.0,71,0.00,,---,0.00,VWS V14.01,2017-05-26 11:10:00,
2017-05-26 04:15:00,56.3,47.0,29.91,SSW,195,0.0,4.0,71,0.00,,---,0.00,VWS V14.01,2017-05-26 11:15:00,
2017-05-26 04:20:00,56.3,47.0,29.91,SSW,195,0.0,2.0,71,0.00,,---,0.00,VWS V14.01,2017-05-26 11:20:00,
2017-05-26 04:25:00,56.3,47.0,29.91,South,187,0.0,2.0,71,0.00,,---,0.00,VWS V14.01,2017-05-26 11:25:00,
2017-05-26 04:30:00,56.4,47.1,29.91,SSW,198,0.0,3.0,71,0.00,,---,0.00,VWS V14.01,2017-05-26 11:30:00,
2017-05-26 04:35:00,56.4,47.1,29.91,SSW,198,3.0,3.0,71,0.00,,---,0.00,VWS V14.01,2017-05-26 11:35:00,
2017-05-26 04:40:00,56.4,47.1,29.91,South,184,3.0,3.0,71,0.00,,---,0.00,VWS V14.01,2017-05-26 11:40:00,
2017-05-26 04:45:00,56.4,47.1,29.92,SSW,200,2.0,4.0,71,0.00,,---,0.00,VWS V14.01,2017-05-26 11:45:00,
2017-05-26 04:50:00,56.4,47.1,29.92,SSW,200,3.0,4.0,71,0.00,,---,0.00,VWS V14.01,2017-05-26 11:50:00,
2017-05-26 04:55:00,56.4,47.5,29.92,SW,223,1.0,4.0,72,0.00,,---,0.00,VWS V14.01,2017-05-26 11:55:00,
2017-05-26 05:00:00,56.2,48.0,29.92,SW,234,2.0,4.0,74,0.00,,---,0.00,VWS V14.01,2017-05-26 12:00:00,
2017-05-26 05:05:00,56.0,47.8,29.92,SW,223,3.0,4.0,74,0.00,,---,0.00,VWS V14.01,2017-05-26 12:05:00,
2017-05-26 05:10:00,55.9,47.7,29.92,SW,223,2.0,4.0,74,0.00,,---,0.00,VWS V14.01,2017-05-26 12:10:00,
2017-05-26 05:11:00,55.8,47.7,29.92,SW,217,1.0,4.0,74,0.00,,---,0.00,VWS V14.01,2017-05-26 12:11:00,
2017-05-26 05:16:00,55.8,47.7,29.92,SSW,213,2.0,2.0,74,0.00,,---,0.00,VWS V14.01,2017-05-26 12:16:00,
2017-05-26 05:21:00,55.8,47.3,29.92,SSW,213,0.0,3.0,73,0.00,,---,0.00,VWS V14.01,2017-05-26 12:21:00,
2017-05-26 05:26:00,55.9,47.7,29.92,SSW,213,0.0,3.0,74,0.00,,---,0.00,VWS V14.01,2017-05-26 12:26:00,
2017-05-26 05:31:00,55.9,47.7,29.92,SSW,213,0.0,1.0,74,0.00,,---,0.00,VWS V14.01,2017-05-26 12:31:00,
2017-05-26 05:36:00,55.9,47.7,29.92,SSW,213,1.0,2.0,74,0.00,,---,0.00,VWS V14.01,2017-05-26 12:36:00,
2017-05-26 05:41:00,55.9,47.7,29.92,SSW,213,0.0,2.0,74,0.00,,---,0.00,VWS V14.01,2017-05-26 12:41:00,
2017-05-26 05:46:00,55.9,48.1,29.92,SSW,203,1.0,1.0,75,0.00,,---,0.00,VWS V14.01,2017-05-26 12:46:00,
2017-05-26 05:51:00,55.9,47.4,29.92,SSE,150,0.0,3.0,73,0.00,,---,0.00,VWS V14.01,2017-05-26 12:51:00,
2017-05-26 05:56:00,55.9,47.0,29.93,SSE,150,0.0,3.0,72,0.00,,---,0.00,VWS V14.01,2017-05-26 12:56:00,
2017-05-26 06:01:00,56.0,47.1,29.93,SSW,195,0.0,0.0,72,0.00,,---,0.00,VWS V14.01,2017-05-26 13:01:00,
2017-05-26 06:06:00,56.1,47.2,29.93,SE,143,0.0,3.0,72,0.00,,---,0.00,VWS V14.01,2017-05-26 13:06:00,
2017-05-26 06:11:00,56.2,46.9,29.93,SE,143,0.0,3.0,71,0.00,,---,0.00,VWS V14.01,2017-05-26 13:11:00,
2017-05-26 06:16:00,56.2,46.9,29.93,SE,143,1.0,2.0,71,0.00,,---,0.00,VWS V14.01,2017-05-26 13:16:00,
2017-05-26 06:21:00,56.3,47.0,29.93,SSE,161,1.0,3.0,71,0.00,,---,0.00,VWS V14.01,2017-05-26 13:21:00,
2017-05-26 06:26:00,56.4,46.8,29.93,SSE,149,0.0,3.0,70,0.00,,---,0.00,VWS V14.01,2017-05-26 13:26:00,
2017-05-26 06:31:00,56.5,46.8,29.93,SSE,149,0.0,1.0,70,0.00,,---,0.00,VWS V14.01,2017-05-26 13:31:00,
2017-05-26 06:36:00,56.6,46.6,29.93,SSE,153,3.0,3.0,69,0.00,,---,0.00,VWS V14.01,2017-05-26 13:36:00,
2017-05-26 06:41:00,56.7,46.7,29.93,SSE,153,0.0,3.0,69,0.00,,---,0.00,VWS V14.01,2017-05-26 13:41:00,
2017-05-26 06:46:00,56.8,46.8,29.93,SSE,154,1.0,2.0,69,0.00,,---,0.00,VWS V14.01,2017-05-26 13:46:00,
2017-05-26 06:51:00,56.9,46.8,29.94,SSE,147,0.0,4.0,69,0.00,,---,0.00,VWS V14.01,2017-05-26 13:51:00,
2017-05-26 06:56:00,57.1,46.7,29.94,SSE,150,2.0,4.0,68,0.00,,---,0.00,VWS V14.01,2017-05-26 13:56:00,
2017-05-26 07:01:00,57.2,46.8,29.94,SE,140,2.0,2.0,68,0.00,,---,0.00,VWS V14.01,2017-05-26 14:01:00,
2017-05-26 07:02:00,57.3,46.8,29.94,SE,144,1.0,3.0,68,0.00,,---,0.00,VWS V14.01,2017-05-26 14:02:00,
2017-05-26 07:07:00,57.5,47.0,29.94,SE,144,0.0,3.0,68,0.00,,---,0.00,VWS V14.01,2017-05-26 14:07:00,
2017-05-26 07:12:00,57.7,46.8,29.94,SE,136,5.0,6.0,67,0.00,,---,0.00,VWS V14.01,2017-05-26 14:12:00,
2017-05-26 07:17:00,57.7,46.8,29.94,SE,136,3.0,4.0,67,0.00,,---,0.00,VWS V14.01,2017-05-26 14:17:00,
2017-05-26 07:22:00,57.8,46.9,29.94,SE,130,2.0,4.0,67,0.00,,---,0.00,VWS V14.01,2017-05-26 14:22:00,
2017-05-26 07:27:00,57.9,47.0,29.94,SE,146,1.0,5.0,67,0.00,,---,0.00,VWS V14.01,2017-05-26 14:27:00,
2017-05-26 07:32:00,58.0,47.1,29.94,SE,134,4.0,5.0,67,0.00,,---,0.00,VWS V14.01,2017-05-26 14:32:00,
2017-05-26 07:37:00,58.2,46.9,29.94,ESE,121,2.0,5.0,66,0.00,,---,0.00,VWS V14.01,2017-05-26 14:37:00,
2017-05-26 07:42:00,58.3,46.6,29.94,SSE,155,2.0,5.0,65,0.00,,---,0.00,VWS V14.01,2017-05-26 14:42:00,
2017-05-26 07:47:00,58.5,47.2,29.94,ESE,107,1.0,4.0,66,0.00,,---,0.00,VWS V14.01,2017-05-26 14:47:00,
2017-05-26 07:52:00,58.6,46.5,29.94,SSE,152,0.0,5.0,64,0.00,,---,0.00,VWS V14.01,2017-05-26 14:52:00,
2017-05-26 07:57:00,58.7,47.0,29.94,ESE,120,4.0,6.0,65,0.00,,---,0.00,VWS V14.01,2017-05-26 14:57:00,
2017-05-26 08:02:00,59.0,46.8,29.94,ESE,111,5.0,5.0,64,0.00,,---,0.00,VWS V14.01,2017-05-26 15:02:00,
2017-05-26 08:08:00,59.0,46.8,29.95,East,99,2.0,5.0,64,0.00,,---,0.00,VWS V14.01,2017-05-26 15:08:00,
2017-05-26 08:13:00,59.1,46.1,29.95,East,98,2.0,5.0,62,0.00,,---,0.00,VWS V14.01,2017-05-26 15:13:00,
2017-05-26 08:18:00,59.4,46.8,29.95,SE,141,0.0,1.0,63,0.00,,---,0.00,VWS V14.01,2017-05-26 15:18:00,
2017-05-26 08:23:00,59.8,47.6,29.95,SE,142,1.0,2.0,64,0.00,,---,0.00,VWS V14.01,2017-05-26 15:23:00,
2017-05-26 08:28:00,60.1,46.6,29.95,SE,134,0.0,3.0,61,0.00,,---,0.00,VWS V14.01,2017-05-26 15:28:00,
2017-05-26 08:33:00,60.4,47.3,29.95,SSE,168,1.0,2.0,62,0.00,,---,0.00,VWS V14.01,2017-05-26 15:33:00,
2017-05-26 08:38:00,60.3,48.1,29.95,West,280,3.0,5.0,64,0.00,,---,0.00,VWS V14.01,2017-05-26 15:38:00,
2017-05-26 08:43:00,59.8,47.6,29.95,West,279,4.0,5.0,64,0.00,,---,0.00,VWS V14.01,2017-05-26 15:43:00,
2017-05-26 08:48:00,59.2,46.6,29.95,WNW,282,3.0,5.0,63,0.00,,---,0.00,VWS V14.01,2017-05-26 15:48:00,
2017-05-26 08:53:00,59.3,47.5,29.95,WNW,283,4.0,5.0,65,0.00,,---,0.00,VWS V14.01,2017-05-26 15:53:00,
2017-05-26 08:58:00,59.4,46.8,29.95,SW,234,2.0,5.0,63,0.00,,---,0.00,VWS V14.01,2017-05-26 15:58:00,
2017-05-26 09:03:00,59.8,48.0,29.95,SW,225,1.0,5.0,65,0.00,,---,0.00,VWS V14.01,2017-05-26 16:03:00,
2017-05-26 09:08:00,60.4,47.8,29.96,West,277,2.0,6.0,63,0.00,,---,0.00,VWS V14.01,2017-05-26 16:08:00,
2017-05-26 09:13:00,61.3,48.6,29.95,WNW,296,2.0,6.0,63,0.00,,---,0.00,VWS V14.01,2017-05-26 16:13:00,
2017-05-26 09:18:00,62.1,48.1,29.96,WNW,298,0.0,3.0,60,0.00,,---,0.00,VWS V14.01,2017-05-26 16:18:00,
2017-05-26 09:23:00,62.9,48.8,29.95,North,355,2.0,3.0,60,0.00,,---,0.00,VWS V14.01,2017-05-26 16:23:00,
2017-05-26 09:28:00,63.8,48.3,29.95,NW,309,3.0,5.0,57,0.00,,---,0.00,VWS V14.01,2017-05-26 16:28:00,
2017-05-26 09:33:00,63.8,47.3,29.95,North,5,1.0,2.0,55,0.00,,---,0.00,VWS V14.01,2017-05-26 16:33:00,
2017-05-26 09:38:00,64.6,48.6,29.95,ENE,76,0.0,3.0,56,0.00,,---,0.00,VWS V14.01,2017-05-26 16:38:00,
2017-05-26 09:43:00,65.9,49.3,29.95,WSW,237,2.0,6.0,55,0.00,,---,0.00,VWS V14.01,2017-05-26 16:43:00,
2017-05-26 09:48:00,65.7,48.1,29.95,WNW,286,2.0,6.0,53,0.00,,---,0.00,VWS V14.01,2017-05-26 16:48:00,
2017-05-26 09:53:00,64.9,48.8,29.95,West,274,5.0,7.0,56,0.00,,---,0.00,VWS V14.01,2017-05-26 16:53:00,
2017-05-26 09:58:00,63.7,48.2,29.95,WNW,284,3.0,7.0,57,0.00,,---,0.00,VWS V14.01,2017-05-26 16:58:00,
2017-05-26 10:03:00,62.9,47.9,29.96,West,279,2.0,4.0,58,0.00,,---,0.00,VWS V14.01,2017-05-26 17:03:00,
2017-05-26 10:08:00,63.3,48.7,29.96,WNW,284,3.0,5.0,59,0.00,,---,0.00,VWS V14.01,2017-05-26 17:08:00,
2017-05-26 10:13:00,64.4,49.3,29.95,SW,230,1.0,5.0,58,0.00,,---,0.00,VWS V14.01,2017-05-26 17:13:00,
2017-05-26 10:18:00,65.5,48.9,29.95,SSE,149,1.0,5.0,55,0.00,,---,0.00,VWS V14.01,2017-05-26 17:18:00,
2017-05-26 10:23:00,65.8,49.2,29.95,SE,144,1.0,5.0,55,0.00,,---,0.00,VWS V14.01,2017-05-26 17:23:00,
2017-05-26 10:25:00,65.9,49.8,29.95,NW,321,2.0,5.0,56,0.00,,---,0.00,VWS V14.01,2017-05-26 17:25:00,
2017-05-26 10:30:00,65.7,50.1,29.95,WNW,292,5.0,6.0,57,0.00,,---,0.00,VWS V14.01,2017-05-26 17:30:00,
2017-05-26 10:35:00,66.0,49.9,29.95,WNW,283,4.0,6.0,56,0.00,,---,0.00,VWS V14.01,2017-05-26 17:35:00,
2017-05-26 10:40:00,66.5,48.9,29.95,SSW,192,2.0,8.0,53,0.00,,---,0.00,VWS V14.01,2017-05-26 17:40:00,
2017-05-26 10:45:00,66.2,48.1,29.95,South,182,1.0,8.0,52,0.00,,---,0.00,VWS V14.01,2017-05-26 17:45:00,
2017-05-26 10:50:00,66.6,50.0,29.95,WSW,247,2.0,6.0,55,0.00,,---,0.00,VWS V14.01,2017-05-26 17:50:00,
2017-05-26 10:55:00,66.7,49.5,29.95,WSW,254,1.0,6.0,54,0.00,,---,0.00,VWS V14.01,2017-05-26 17:55:00,
2017-05-26 11:00:00,66.7,49.0,29.95,SSW,200,0.0,6.0,53,0.00,,---,0.00,VWS V14.01,2017-05-26 18:00:00,
2017-05-26 11:05:00,66.3,49.7,29.95,West,280,2.0,5.0,55,0.00,,---,0.00,VWS V14.01,2017-05-26 18:05:00,
2017-05-26 11:10:00,66.4,50.7,29.95,WNW,286,2.0,8.0,57,0.00,,---,0.00,VWS V14.01,2017-05-26 18:10:00,
2017-05-26 11:15:00,67.3,51.1,29.95,WNW,292,5.0,9.0,56,0.00,,---,0.00,VWS V14.01,2017-05-26 18:15:00,
2017-05-26 11:20:00,67.3,49.6,29.95,NW,306,5.0,9.0,53,0.00,,---,0.00,VWS V14.01,2017-05-26 18:20:00,
2017-05-26 11:25:00,66.8,50.1,29.95,NW,304,5.0,9.0,55,0.00,,---,0.00,VWS V14.01,2017-05-26 18:25:00,
2017-05-26 11:30:00,66.6,48.4,29.95,NNE,27,3.0,9.0,52,0.00,,---,0.00,VWS V14.01,2017-05-26 18:30:00,
2017-05-26 11:31:00,66.3,48.7,29.95,NW,325,2.0,4.0,53,0.00,,---,0.00,VWS V14.01,2017-05-26 18:31:00,
2017-05-26 11:36:00,66.1,49.5,29.95,NW,313,2.0,6.0,55,0.00,,---,0.00,VWS V14.01,2017-05-26 18:36:00,
2017-05-26 11:41:00,66.6,50.0,29.95,SW,224,5.0,6.0,55,0.00,,---,0.00,VWS V14.01,2017-05-26 18:41:00,
2017-05-26 11:46:00,67.8,50.6,29.95,West,271,2.0,4.0,54,0.00,,---,0.00,VWS V14.01,2017-05-26 18:46:00,
2017-05-26 11:51:00,69.1,52.3,29.95,WSW,257,2.0,4.0,55,0.00,,---,0.00,VWS V14.01,2017-05-26 18:51:00,
2017-05-26 11:56:00,70.1,51.2,29.95,WNW,297,2.0,5.0,51,0.00,,---,0.00,VWS V14.01,2017-05-26 18:56:00,
2017-05-26 12:01:00,70.1,51.2,29.95,West,276,3.0,6.0,51,0.00,,---,0.00,VWS V14.01,2017-05-26 19:01:00,
2017-05-26 12:06:00,69.0,50.7,29.95,WNW,290,6.0,14.0,52,0.00,,---,0.00,VWS V14.01,2017-05-26 19:06:00,
2017-05-26 12:11:00,67.2,50.0,29.96,WNW,299,4.0,14.0,54,0.00,,---,0.00,VWS V14.01,2017-05-26 19:11:00,
2017-05-26 12:16:00,66.9,51.2,29.95,WNW,291,7.0,7.0,57,0.00,,---,0.00,VWS V14.01,2017-05-26 19:16:00,
2017-05-26 12:21:00,67.7,51.9,29.95,West,273,7.0,10.0,57,0.00,,---,0.00,VWS V14.01,2017-05-26 19:21:00,
2017-05-26 12:26:00,68.5,52.2,29.95,West,281,6.0,11.0,56,0.00,,---,0.00,VWS V14.01,2017-05-26 19:26:00,
2017-05-26 12:31:00,68.9,52.1,29.95,WNW,292,6.0,7.0,55,0.00,,---,0.00,VWS V14.01,2017-05-26 19:31:00,
2017-05-26 12:36:00,69.0,52.2,29.96,WNW,288,6.0,12.0,55,0.00,,---,0.00,VWS V14.01,2017-05-26 19:36:00,
2017-05-26 12:41:00,69.0,51.7,29.96,WSW,238,4.0,12.0,54,0.00,,---,0.00,VWS V14.01,2017-05-26 19:41:00,
2017-05-26 12:46:00,68.9,52.6,29.96,WNW,301,7.0,9.0,56,0.00,,---,0.00,VWS V14.01,2017-05-26 19:46:00,
2017-05-26 12:51:00,68.8,52.0,29.96,WNW,287,11.0,12.0,55,0.00,,---,0.00,VWS V14.01,2017-05-26 19:51:00,
2017-05-26 12:56:00,68.6,52.8,29.96,West,267,5.0,12.0,57,0.00,,---,0.00,VWS V14.01,2017-05-26 19:56:00,
2017-05-26 13:01:00,68.8,52.5,29.96,West,274,7.0,12.0,56,0.00,,---,0.00,VWS V14.01,2017-05-26 20:01:00,
2017-05-26 13:06:00,69.2,52.8,29.96,WNW,299,6.0,12.0,56,0.00,,---,0.00,VWS V14.01,2017-05-26 20:06:00,
2017-05-26 13:11:00,69.2,52.4,29.96,WNW,300,5.0,13.0,55,0.00,,---,0.00,VWS V14.01,2017-05-26 20:11:00,
2017-05-26 13:16:00,68.9,53.5,29.96,WNW,294,4.0,12.0,58,0.00,,---,0.00,VWS V14.01,2017-05-26 20:16:00,
2017-05-26 13:22:00,69.0,53.2,29.96,West,278,6.0,13.0,57,0.00,,---,0.00,VWS V14.01,2017-05-26 20:22:00,
2017-05-26 13:27:00,69.3,54.4,29.96,West,271,7.0,13.0,59,0.00,,---,0.00,VWS V14.01,2017-05-26 20:27:00,
2017-05-26 13:32:00,69.2,53.3,29.96,WSW,248,7.0,8.0,57,0.00,,---,0.00,VWS V14.01,2017-05-26 20:32:00,
2017-05-26 13:37:00,68.3,52.5,29.96,NW,315,6.0,12.0,57,0.00,,---,0.00,VWS V14.01,2017-05-26 20:37:00,
2017-05-26 13:47:00,67.1,52.8,29.97,WSW,247,5.0,13.0,60,0.00,,---,0.00,VWS V14.01,2017-05-26 20:47:00,
2017-05-26 13:52:00,67.3,53.8,29.97,WSW,246,3.0,13.0,62,0.00,,---,0.00,VWS V14.01,2017-05-26 20:52:00,
2017-05-26 13:57:00,68.0,54.5,29.96,WNW,299,5.0,13.0,62,0.00,,---,0.00,VWS V14.01,2017-05-26 20:57:00,
2017-05-26 14:02:00,68.7,53.3,29.96,WNW,293,9.0,9.0,58,0.00,,---,0.00,VWS V14.01,2017-05-26 21:02:00,
2017-05-26 14:07:00,69.0,53.2,29.96,SE,134,2.0,10.0,57,0.00,,---,0.00,VWS V14.01,2017-05-26 21:07:00,
2017-05-26 14:12:00,69.5,53.6,29.96,WNW,292,5.0,10.0,57,0.00,,---,0.00,VWS V14.01,2017-05-26 21:12:00,
2017-05-26 14:17:00,69.2,52.8,29.96,WSW,252,7.0,10.0,56,0.00,,---,0.00,VWS V14.01,2017-05-26 21:17:00,
2017-05-26 14:22:00,68.2,52.4,29.96,WNW,303,7.0,12.0,57,0.00,,---,0.00,VWS V14.01,2017-05-26 21:22:00,
2017-05-26 14:27:00,67.7,52.9,29.96,West,279,2.0,12.0,59,0.00,,---,0.00,VWS V14.01,2017-05-26 21:27:00,
2017-05-26 14:32:00,67.2,52.4,29.96,WNW,300,9.0,13.0,59,0.00,,---,0.00,VWS V14.01,2017-05-26 21:32:00,
2017-05-26 14:37:00,66.7,52.4,29.96,WNW,292,3.0,13.0,60,0.00,,---,0.00,VWS V14.01,2017-05-26 21:37:00,
2017-05-26 14:42:00,66.5,52.2,29.96,West,262,3.0,13.0,60,0.00,,---,0.00,VWS V14.01,2017-05-26 21:42:00,
2017-05-26 14:47:00,66.7,52.4,29.96,WNW,299,2.0,5.0,60,0.00,,---,0.00,VWS V14.01,2017-05-26 21:47:00,
2017-05-26 14:52:00,66.7,52.4,29.96,West,273,3.0,11.0,60,0.00,,---,0.00,VWS V14.01,2017-05-26 21:52:00,
2017-05-26 14:57:00,66.6,52.8,29.96,WNW,292,3.0,11.0,61,0.00,,---,0.00,VWS V14.01,2017-05-26 21:57:00,
2017-05-26 15:02:00,66.6,52.3,29.96,WNW,293,3.0,6.0,60,0.00,,---,0.00,VWS V14.01,2017-05-26 22:02:00,
2017-05-26 15:07:00,66.3,52.0,29.96,NW,306,6.0,6.0,60,0.00,,---,0.00,VWS V14.01,2017-05-26 22:07:00,
2017-05-26 15:12:00,66.5,52.7,29.96,WNW,293,4.0,6.0,61,0.00,,---,0.00,VWS V14.01,2017-05-26 22:12:00,
2017-05-26 15:17:00,66.6,53.2,29.95,WNW,289,5.0,7.0,62,0.00,,---,0.00,VWS V14.01,2017-05-26 22:17:00,
2017-05-26 15:22:00,66.7,52.4,29.95,WNW,283,4.0,11.0,60,0.00,,---,0.00,VWS V14.01,2017-05-26 22:22:00,
2017-05-26 15:27:00,66.3,52.9,29.95,WNW,303,4.0,11.0,62,0.00,,---,0.00,VWS V14.01,2017-05-26 22:27:00,
2017-05-26 15:32:00,66.1,53.2,29.95,WNW,298,3.0,6.0,63,0.00,,---,0.00,VWS V14.01,2017-05-26 22:32:00,
2017-05-26 15:37:00,66.0,52.6,29.95,WNW,298,4.0,6.0,62,0.00,,---,0.00,VWS V14.01,2017-05-26 22:37:00,
2017-05-26 15:42:00,65.9,52.5,29.95,NW,325,3.0,7.0,62,0.00,,---,0.00,VWS V14.01,2017-05-26 22:42:00,
2017-05-26 15:47:00,65.9,53.0,29.95,NW,307,6.0,7.0,63,0.00,,---,0.00,VWS V14.01,2017-05-26 22:47:00,
2017-05-26 15:52:00,65.8,52.4,29.95,WNW,282,3.0,11.0,62,0.00,,---,0.00,VWS V14.01,2017-05-26 22:52:00,
2017-05-26 15:57:00,65.4,52.5,29.95,WNW,288,3.0,11.0,63,0.00,,---,0.00,VWS V14.01,2017-05-26 22:57:00,
2017-05-26 16:02:00,65.1,51.8,29.95,WNW,290,3.0,9.0,62,0.00,,---,0.00,VWS V14.01,2017-05-26 23:02:00,
2017-05-26 16:07:00,64.8,51.5,29.95,NW,310,5.0,9.0,62,0.00,,---,0.00,VWS V14.01,2017-05-26 23:07:00,
2017-05-26 16:12:00,64.6,51.7,29.95,WNW,296,4.0,9.0,63,0.00,,---,0.00,VWS V14.01,2017-05-26 23:12:00,
2017-05-26 16:17:00,64.6,51.7,29.95,WNW,290,3.0,7.0,63,0.00,,---,0.00,VWS V14.01,2017-05-26 23:17:00,
2017-05-26 16:22:00,64.6,51.7,29.95,NW,313,2.0,7.0,63,0.00,,---,0.00,VWS V14.01,2017-05-26 23:22:00,
2017-05-26 16:27:00,64.5,51.6,29.95,NW,304,4.0,7.0,63,0.00,,---,0.00,VWS V14.01,2017-05-26 23:27:00,
2017-05-26 16:32:00,64.7,51.8,29.95,NNW,342,2.0,3.0,63,0.00,,---,0.00,VWS V14.01,2017-05-26 23:32:00,
2017-05-26 16:33:00,64.7,51.8,29.95,NNW,342,0.0,3.0,63,0.00,,---,0.00,VWS V14.01,2017-05-26 23:33:00,
2017-05-26 16:38:00,64.9,51.2,29.95,NNW,341,2.0,7.0,61,0.00,,---,0.00,VWS V14.01,2017-05-26 23:38:00,
2017-05-26 16:43:00,65.0,51.2,29.94,West,268,1.0,7.0,61,0.00,,---,0.00,VWS V14.01,2017-05-26 23:43:00,
2017-05-26 16:48:00,65.1,51.8,29.94,WSW,244,1.0,5.0,62,0.00,,---,0.00,VWS V14.01,2017-05-26 23:48:00,
2017-05-26 16:53:00,65.1,51.3,29.95,NW,305,4.0,5.0,61,0.00,,---,0.00,VWS V14.01,2017-05-26 23:53:00,
2017-05-26 16:58:00,65.1,51.3,29.95,WSW,242,2.0,6.0,61,0.00,,---,0.00,VWS V14.01,2017-05-26 23:58:00,
2017-05-26 17:03:00,65.0,51.7,29.94,WNW,291,2.0,5.0,62,0.00,,---,0.00,VWS V14.01,2017-05-27 00:03:00,
2017-05-26 17:08:00,65.0,51.2,29.95,West,269,5.0,7.0,61,0.00,,---,0.00,VWS V14.01,2017-05-27 00:08:00,
2017-05-26 17:13:00,65.0,51.7,29.94,NW,306,5.0,7.0,62,0.00,,---,0.00,VWS V14.01,2017-05-27 00:13:00,
2017-05-26 17:18:00,65.1,51.8,29.94,WNW,290,4.0,7.0,62,0.00,,---,0.00,VWS V14.01,2017-05-27 00:18:00,
2017-05-26 17:23:00,64.9,51.2,29.95,West,267,3.0,7.0,61,0.00,,---,0.00,VWS V14.01,2017-05-27 00:23:00,
2017-05-26 17:28:00,64.8,51.0,29.94,West,281,3.0,7.0,61,0.00,,---,0.00,VWS V14.01,2017-05-27 00:28:00,
2017-05-26 17:33:00,64.5,51.2,29.94,NW,318,6.0,6.0,62,0.00,,---,0.00,VWS V14.01,2017-05-27 00:33:00,
2017-05-26 17:38:00,64.4,51.1,29.95,WNW,287,5.0,7.0,62,0.00,,---,0.00,VWS V14.01,2017-05-27 00:38:00,
2017-05-26 17:43:00,64.2,50.9,29.95,WNW,291,6.0,9.0,62,0.00,,---,0.00,VWS V14.01,2017-05-27 00:43:00,
2017-05-26 17:48:00,63.9,51.1,29.95,WNW,282,4.0,9.0,63,0.00,,---,0.00,VWS V14.01,2017-05-27 00:48:00,
2017-05-26 17:53:00,63.6,50.8,29.95,West,279,6.0,9.0,63,0.00,,---,0.00,VWS V14.01,2017-05-27 00:53:00,
2017-05-26 17:58:00,63.4,51.0,29.95,West,276,5.0,10.0,64,0.00,,---,0.00,VWS V14.01,2017-05-27 00:58:00,
2017-05-26 18:03:00,63.2,50.8,29.95,WSW,237,6.0,7.0,64,0.00,,---,0.00,VWS V14.01,2017-05-27 01:03:00,
2017-05-26 18:08:00,63.0,51.5,29.95,West,267,5.0,7.0,66,0.00,,---,0.00,VWS V14.01,2017-05-27 01:08:00,
2017-05-26 18:13:00,62.9,51.4,29.95,WNW,299,4.0,7.0,66,0.00,,---,0.00,VWS V14.01,2017-05-27 01:13:00,
2017-05-26 18:18:00,62.8,51.3,29.95,WNW,290,7.0,7.0,66,0.00,,---,0.00,VWS V14.01,2017-05-27 01:18:00,
2017-05-26 18:23:00,62.7,51.6,29.95,NW,306,3.0,7.0,67,0.00,,---,0.00,VWS V14.01,2017-05-27 01:23:00,
2017-05-26 18:28:00,62.5,51.4,29.95,WNW,288,5.0,7.0,67,0.00,,---,0.00,VWS V14.01,2017-05-27 01:28:00,
2017-05-26 18:33:00,62.3,51.6,29.95,WSW,254,3.0,6.0,68,0.00,,---,0.00,VWS V14.01,2017-05-27 01:33:00,
2017-05-26 18:38:00,62.1,51.4,29.95,West,271,3.0,6.0,68,0.00,,---,0.00,VWS V14.01,2017-05-27 01:38:00,
2017-05-26 18:43:00,62.0,51.7,29.96,West,279,3.0,6.0,69,0.00,,---,0.00,VWS V14.01,2017-05-27 01:43:00,
2017-05-26 18:48:00,61.8,51.5,29.96,West,261,2.0,6.0,69,0.00,,---,0.00,VWS V14.01,2017-05-27 01:48:00,
2017-05-26 18:53:00,61.6,51.0,29.96,WNW,302,2.0,6.0,68,0.00,,---,0.00,VWS V14.01,2017-05-27 01:53:00,
2017-05-26 18:59:00,61.4,51.2,29.96,WNW,303,3.0,6.0,69,0.00,,---,0.00,VWS V14.01,2017-05-27 01:59:00,
2017-05-26 19:08:00,61.2,51.0,29.96,WNW,295,3.0,5.0,69,0.00,,---,0.00,VWS V14.01,2017-05-27 02:08:00,
2017-05-26 19:14:00,61.0,50.8,29.96,West,264,3.0,5.0,69,0.00,,---,0.00,VWS V14.01,2017-05-27 02:14:00,
2017-05-26 19:19:00,60.9,51.1,29.96,WNW,301,2.0,4.0,70,0.00,,---,0.00,VWS V14.01,2017-05-27 02:19:00,
2017-05-26 19:24:00,60.9,51.1,29.96,WNW,288,2.0,5.0,70,0.00,,---,0.00,VWS V14.01,2017-05-27 02:24:00,
2017-05-26 19:29:00,60.8,51.0,29.96,WNW,284,4.0,5.0,70,0.00,,---,0.00,VWS V14.01,2017-05-27 02:29:00,
2017-05-26 19:34:00,60.7,50.9,29.96,NW,325,4.0,4.0,70,0.00,,---,0.00,VWS V14.01,2017-05-27 02:34:00,
2017-05-26 19:39:00,60.7,51.2,29.96,WNW,292,4.0,5.0,71,0.00,,---,0.00,VWS V14.01,2017-05-27 02:39:00,
2017-05-26 19:40:00,60.7,51.2,29.97,WNW,303,3.0,5.0,71,0.00,,---,0.00,VWS V14.01,2017-05-27 02:40:00,
2017-05-26 19:45:00,60.6,51.2,29.97,WNW,294,3.0,3.0,71,0.00,,---,0.00,VWS V14.01,2017-05-27 02:45:00,
2017-05-26 19:50:00,60.5,51.1,29.96,WNW,292,2.0,4.0,71,0.00,,---,0.00,VWS V14.01,2017-05-27 02:50:00,
2017-05-26 19:55:00,60.5,51.1,29.96,NW,309,1.0,4.0,71,0.00,,---,0.00,VWS V14.01,2017-05-27 02:55:00,
2017-05-26 20:00:00,60.4,51.0,29.97,WNW,288,2.0,4.0,71,0.00,,---,0.00,VWS V14.01,2017-05-27 03:00:00,
2017-05-26 20:05:00,60.4,51.0,29.97,WNW,288,2.0,5.0,71,0.00,,---,0.00,VWS V14.01,2017-05-27 03:05:00,